Weather History for Lihue, HI

Change the Weather History Date:

Tuesday, January 1, 2013

  Actual Average Record
Temperature  
Mean Temperature 72 °F 72 °F  
Max Temperature 75 °F 78 °F 83 °F (2003)
Min Temperature 68 °F 66 °F 55 °F (1973)
Degree Days  
Heating Degree Days 0 0  
Month to date heating degree days 0 0  
Since 1 July heating degree days 0 0  
Cooling Degree Days 7 7  
Month to date cooling degree days 7 7  
Year to date cooling degree days 7 7  
Growing Degree Days 22 (Base 50)    
Moisture  
Dew Point 64 °F    
Average Humidity 77    
Maximum Humidity 93    
Minimum Humidity 60    
Precipitation  
Precipitation 0.16 in 0.13 in 4.48 in (1998)
Month to date precipitation 0.16 0.13  
Year to date precipitation 0.16 0.13  
Snow  
Snow 0.00 in - - ()
Month to date snowfall 0.0  
Since 1 July snowfall 0.0  
Snow Depth 0.00 in    
Sea Level Pressure  
Sea Level Pressure 30.12 in    
Wind  
Wind Speed 17 mph (North)    
Max Wind Speed 26 mph    
Max Gust Speed 31 mph    
Visibility 9 miles    
Events Rain    
T = Trace of Precipitation, MM = Missing Value Source: NWS Daily Summary

Daily Weather History Graph

Daily Weather History Graph

Search for Another Location

Airport:

Trip Planner

Search our weather history database for the weather conditions in past years. The results will help you decide how hot, cold, wet, or windy it might be!

Date:

Astronomy

Jan. 01, 2013 Rise Set
Actual Time 7:16 AM HST 6:06 PM HST
Civil Twilight 6:52 AM HST 6:30 PM HST
Nautical Twilight 6:24 AM HST 6:58 PM HST
Astronomical Twilight 5:57 AM HST 7:25 PM HST
Moon 10:13 PM HST (1/1) 10:06 AM HST (1/1)
Length of Visible Light 11h 38m
Length of Day
10h 49m
Waning Gibbous, 82% of the Moon is Illuminated
Jan 1
Waning Gibbous
Jan 4
Last Quarter
Jan 11
New
Jan 18
First Quarter
Jan 26
Full

Hourly Weather History & Observations

Time (HST) Temp. Dew Point Humidity Pressure Visibility Wind Dir Wind Speed Gust Speed Precip Events Conditions
12:06 AM 69.8 °F 66.2 °F 88% 30.12 in 8.0 mi NNW 9.2 mph - 0.00 in Rain Light Rain
12:19 AM 69.8 °F 66.2 °F 88% 30.11 in 9.0 mi NNW 9.2 mph - 0.00 in Rain Light Rain
12:29 AM 69.8 °F 66.2 °F 88% 30.12 in 7.0 mi North 11.5 mph - 0.01 in Rain Light Rain
12:38 AM 69.8 °F 66.2 °F 88% 30.11 in 4.0 mi North 13.8 mph - 0.03 in Rain Rain
12:53 AM 69.1 °F 66.0 °F 90% 30.11 in 9.0 mi NNW 5.8 mph - 0.04 in Rain Light Rain
1:08 AM 69.8 °F 66.2 °F 88% 30.11 in 10.0 mi North 8.1 mph - N/A   Overcast
1:32 AM 69.8 °F 66.2 °F 88% 30.11 in 9.0 mi North 10.4 mph - 0.00 in Rain Light Rain
1:53 AM 69.1 °F 66.0 °F 90% 30.10 in 5.0 mi North 11.5 mph - 0.01 in Rain Rain
2:04 AM 69.8 °F 66.2 °F 88% 30.11 in 3.0 mi NNW 11.5 mph 20.7 mph 0.09 in Rain Heavy Rain
2:22 AM 69.8 °F 66.2 °F 88% 30.10 in 10.0 mi NNE 8.1 mph - 0.10 in Rain Light Rain
2:45 AM 69.8 °F 66.2 °F 88% 30.10 in 9.0 mi NNW 12.7 mph - 0.10 in Rain Light Rain
2:53 AM 69.1 °F 66.0 °F 90% 30.10 in 10.0 mi North 11.5 mph - 0.10 in   Overcast
3:17 AM 69.8 °F 66.2 °F 88% 30.11 in 10.0 mi North 13.8 mph - 0.01 in   Overcast
3:53 AM 68.0 °F 66.0 °F 93% 30.10 in 10.0 mi North 12.7 mph - 0.01 in   Mostly Cloudy
4:30 AM 69.8 °F 66.2 °F 88% 30.11 in 10.0 mi North 18.4 mph 27.6 mph N/A   Mostly Cloudy
4:53 AM 69.1 °F 66.0 °F 90% 30.11 in 9.0 mi North 15.0 mph - 0.00 in Rain Light Rain
5:04 AM 69.8 °F 66.2 °F 88% 30.12 in 10.0 mi North 10.4 mph - 0.00 in Rain Light Rain
5:27 AM 69.8 °F 66.2 °F 88% 30.12 in 10.0 mi North 13.8 mph - 0.00 in   Overcast
5:53 AM 69.1 °F 64.9 °F 87% 30.12 in 10.0 mi North 17.3 mph 21.9 mph 0.00 in   Overcast
6:53 AM 69.1 °F 64.9 °F 87% 30.13 in 10.0 mi North 15.0 mph - 0.00 in   Overcast
7:36 AM 69.8 °F 64.4 °F 83% 30.14 in 10.0 mi North 18.4 mph 25.3 mph N/A   Overcast
7:53 AM 69.1 °F 64.0 °F 84% 30.14 in 10.0 mi North 16.1 mph - N/A   Overcast
8:48 AM 69.8 °F 62.6 °F 78% 30.16 in 10.0 mi North 17.3 mph 25.3 mph N/A   Overcast
8:53 AM 70.0 °F 62.1 °F 76% 30.16 in 10.0 mi North 15.0 mph - N/A   Overcast
9:15 AM 71.6 °F 62.6 °F 73% 30.16 in 10.0 mi North 13.8 mph - N/A   Overcast
9:53 AM 73.0 °F 60.1 °F 64% 30.17 in 10.0 mi North 24.2 mph 31.1 mph N/A   Mostly Cloudy
10:53 AM 73.0 °F 60.1 °F 64% 30.15 in 10.0 mi NNE 24.2 mph 29.9 mph N/A   Partly Cloudy
11:53 AM 73.0 °F 61.0 °F 66% 30.13 in 10.0 mi NNE 23.0 mph 29.9 mph N/A   Overcast
12:53 PM 75.0 °F 60.1 °F 60% 30.10 in 10.0 mi NNE 24.2 mph - N/A   Overcast
1:53 PM 73.9 °F 60.1 °F 62% 30.08 in 10.0 mi NNE 24.2 mph 31.1 mph N/A   Overcast
2:53 PM 72.0 °F 59.0 °F 64% 30.07 in 10.0 mi NNE 21.9 mph 26.5 mph N/A   Overcast
3:53 PM 73.0 °F 60.1 °F 64% 30.07 in 10.0 mi NNE 18.4 mph - N/A   Overcast
4:53 PM 70.0 °F 60.1 °F 71% 30.09 in 10.0 mi NNW 18.4 mph 25.3 mph 0.00 in Rain Light Rain
5:03 PM 68.0 °F 62.6 °F 83% 30.10 in 8.0 mi NNW 13.8 mph - 0.00 in Rain Light Rain
5:53 PM 70.0 °F 62.1 °F 76% 30.11 in 9.0 mi NE 15.0 mph - 0.00 in Rain Light Rain
6:35 PM 69.8 °F 62.6 °F 78% 30.12 in 10.0 mi NE 20.7 mph 25.3 mph 0.00 in   Overcast
6:50 PM 71.6 °F 62.6 °F 73% 30.13 in 10.0 mi NE 18.4 mph - 0.00 in   Overcast
6:53 PM 70.0 °F 62.1 °F 76% 30.12 in 10.0 mi ENE 16.1 mph 24.2 mph 0.00 in   Overcast
7:53 PM 70.0 °F 62.1 °F 76% 30.13 in 9.0 mi NE 20.7 mph 26.5 mph N/A   Overcast
8:53 PM 71.1 °F 61.0 °F 70% 30.14 in 10.0 mi North 11.5 mph - 0.00 in   Mostly Cloudy
9:53 PM 70.0 °F 62.1 °F 76% 30.14 in 10.0 mi North 8.1 mph 21.9 mph N/A   Overcast
10:17 PM 71.6 °F 62.6 °F 73% 30.14 in 10.0 mi NE 18.4 mph - N/A   Overcast
10:53 PM 72.0 °F 62.1 °F 71% 30.14 in 10.0 mi NE 18.4 mph - N/A   Overcast
11:53 PM 71.1 °F 62.1 °F 73% 30.12 in 10.0 mi NE 18.4 mph 25.3 mph N/A   Overcast